Time,TemperatureF,DewpointF,PressureIn,WindDirection,WindDirectionDegrees,WindSpeedMPH,WindSpeedGustMPH,Humidity,HourlyPrecipIn,Conditions,Clouds,dailyrainin,SoftwareType,DateUTC
2013-09-05 00:03:00,60.6,57.1,30.08,NNE,22,0.0,0.0,88,0.00,,,0.00,WUHU21623XXSP,2013-09-05 05:03:00,
2013-09-05 00:08:00,60.6,57.1,30.08,NNE,22,0.0,0.0,88,0.00,,,0.00,WUHU21623XXSP,2013-09-05 05:08:00,
2013-09-05 00:13:00,60.4,56.9,30.08,NNE,22,0.0,0.0,88,0.00,,,0.00,WUHU21623XXSP,2013-09-05 05:13:00,
2013-09-05 00:18:00,60.3,56.7,30.08,NNE,22,0.0,0.0,88,0.00,,,0.00,WUHU21623XXSP,2013-09-05 05:18:00,
2013-09-05 00:23:00,60.1,56.9,30.08,NNE,22,0.0,0.0,89,0.00,,,0.00,WUHU21623XXSP,2013-09-05 05:23:00,
2013-09-05 00:28:00,59.9,56.7,30.08,NNE,22,0.0,0.0,89,0.00,,,0.00,WUHU21623XXSP,2013-09-05 05:28:00,
2013-09-05 00:33:00,59.7,56.5,30.08,NNE,22,0.0,0.0,89,0.00,,,0.00,WUHU21623XXSP,2013-09-05 05:33:00,
2013-09-05 00:38:00,59.5,56.3,30.08,NNE,22,0.0,0.0,89,0.00,,,0.00,WUHU21623XXSP,2013-09-05 05:38:00,
2013-09-05 00:43:00,59.4,56.2,30.08,NNE,22,0.0,0.0,89,0.00,,,0.00,WUHU21623XXSP,2013-09-05 05:43:00,
2013-09-05 00:48:00,59.2,56.0,30.08,NNE,22,0.0,0.0,89,0.00,,,0.00,WUHU21623XXSP,2013-09-05 05:48:00,
2013-09-05 00:53:00,59.0,55.8,30.08,NNE,22,0.0,0.0,89,0.00,,,0.00,WUHU21623XXSP,2013-09-05 05:53:00,
2013-09-05 00:58:00,58.8,55.6,30.09,NNE,22,0.0,0.0,89,0.00,,,0.00,WUHU21623XXSP,2013-09-05 05:58:00,
2013-09-05 01:03:00,58.8,55.6,30.09,NNE,22,0.0,0.0,89,0.00,,,0.00,WUHU21623XXSP,2013-09-05 06:03:00,
2013-09-05 01:08:00,58.8,55.9,30.09,NNE,22,0.0,0.0,90,0.00,,,0.00,WUHU21623XXSP,2013-09-05 06:08:00,
2013-09-05 01:13:00,58.8,55.9,30.09,NNE,22,0.0,0.0,90,0.00,,,0.00,WUHU21623XXSP,2013-09-05 06:13:00,
2013-09-05 01:18:00,58.8,55.9,30.09,NNE,22,0.0,0.0,90,0.00,,,0.00,WUHU21623XXSP,2013-09-05 06:18:00,
2013-09-05 01:23:00,58.8,55.9,30.09,NNE,22,0.0,0.0,90,0.00,,,0.00,WUHU21623XXSP,2013-09-05 06:23:00,
2013-09-05 01:28:00,58.8,55.9,30.09,NNE,22,0.0,0.0,90,0.00,,,0.00,WUHU21623XXSP,2013-09-05 06:28:00,
2013-09-05 01:33:00,58.8,55.9,30.09,NNE,22,0.0,0.0,90,0.00,,,0.00,WUHU21623XXSP,2013-09-05 06:33:00,
2013-09-05 01:38:00,58.8,55.9,30.10,NE,45,0.0,0.0,90,0.00,,,0.00,WUHU21623XXSP,2013-09-05 06:38:00,
2013-09-05 01:43:00,58.8,55.9,30.10,NE,45,0.0,0.0,90,0.00,,,0.00,WUHU21623XXSP,2013-09-05 06:43:00,
2013-09-05 01:48:00,59.2,56.3,30.10,North,0,0.0,0.0,90,0.00,,,0.00,WUHU21623XXSP,2013-09-05 06:48:00,
2013-09-05 01:53:00,59.4,56.5,30.10,NE,45,0.0,0.0,90,0.00,,,0.00,WUHU21623XXSP,2013-09-05 06:53:00,
2013-09-05 01:58:00,59.5,56.7,30.10,NE,45,0.0,0.0,90,0.00,,,0.00,WUHU21623XXSP,2013-09-05 06:58:00,
2013-09-05 02:03:00,59.9,57.0,30.10,West,270,0.0,0.0,90,0.00,,,0.00,WUHU21623XXSP,2013-09-05 07:03:00,
2013-09-05 02:08:00,60.1,57.2,30.10,West,270,0.0,0.0,90,0.00,,,0.00,WUHU21623XXSP,2013-09-05 07:08:00,
2013-09-05 02:13:00,60.1,57.2,30.10,NNE,22,0.0,0.0,90,0.00,,,0.00,WUHU21623XXSP,2013-09-05 07:13:00,
2013-09-05 02:18:00,60.3,57.7,30.10,ENE,67,0.0,0.0,91,0.00,,,0.00,WUHU21623XXSP,2013-09-05 07:18:00,
2013-09-05 02:23:00,60.4,57.8,30.10,NE,45,0.0,0.0,91,0.00,,,0.00,WUHU21623XXSP,2013-09-05 07:23:00,
2013-09-05 02:28:00,60.4,57.8,30.10,NE,45,0.0,0.0,91,0.00,,,0.00,WUHU21623XXSP,2013-09-05 07:28:00,
2013-09-05 02:33:00,60.4,57.8,30.10,NE,45,0.0,0.0,91,0.00,,,0.00,WUHU21623XXSP,2013-09-05 07:33:00,
2013-09-05 02:38:00,60.4,57.8,30.11,South,180,0.0,0.0,91,0.00,,,0.00,WUHU21623XXSP,2013-09-05 07:38:00,
2013-09-05 02:43:00,60.4,57.8,30.11,NE,45,0.0,0.0,91,0.00,,,0.00,WUHU21623XXSP,2013-09-05 07:43:00,
2013-09-05 02:48:00,60.4,57.8,30.11,North,0,0.0,0.0,91,0.00,,,0.00,WUHU21623XXSP,2013-09-05 07:48:00,
2013-09-05 02:53:00,60.4,57.8,30.11,NE,45,0.0,0.0,91,0.00,,,0.00,WUHU21623XXSP,2013-09-05 07:53:00,
2013-09-05 02:58:00,60.4,57.8,30.10,NE,45,0.0,0.0,91,0.00,,,0.00,WUHU21623XXSP,2013-09-05 07:58:00,
2013-09-05 03:03:00,60.4,57.8,30.10,ENE,67,0.0,0.0,91,0.00,,,0.00,WUHU21623XXSP,2013-09-05 08:03:00,
2013-09-05 03:08:00,60.4,57.8,30.10,NNE,22,0.0,0.0,91,0.00,,,0.00,WUHU21623XXSP,2013-09-05 08:08:00,
2013-09-05 03:13:00,60.4,57.7,30.10,NNE,22,0.0,0.0,91,0.00,,,0.00,WUHU21623XXSP,2013-09-05 08:13:00,
2013-09-05 03:18:00,60.4,57.8,30.12,NNW,337,0.0,0.0,91,0.00,,,0.00,WUHU21623XXSP,2013-09-05 08:18:00,
2013-09-05 03:23:00,60.4,57.8,30.11,NW,315,0.0,0.0,91,0.00,,,0.00,WUHU21623XXSP,2013-09-05 08:23:00,
2013-09-05 03:28:00,60.4,57.8,30.12,East,90,0.0,0.0,91,0.00,,,0.00,WUHU21623XXSP,2013-09-05 08:28:00,
2013-09-05 03:33:00,60.4,57.8,30.12,North,0,0.0,0.0,91,0.00,,,0.00,WUHU21623XXSP,2013-09-05 08:33:00,
2013-09-05 03:38:00,60.4,57.8,30.12,SSE,157,0.0,0.0,91,0.00,,,0.00,WUHU21623XXSP,2013-09-05 08:38:00,
2013-09-05 03:43:00,60.4,57.8,30.12,ENE,67,0.0,0.0,91,0.00,,,0.00,WUHU21623XXSP,2013-09-05 08:43:00,
2013-09-05 03:48:00,60.3,57.7,30.12,NE,45,0.0,0.0,91,0.00,,,0.00,WUHU21623XXSP,2013-09-05 08:48:00,
2013-09-05 03:53:00,60.3,57.7,30.12,WSW,247,0.0,0.0,91,0.00,,,0.00,WUHU21623XXSP,2013-09-05 08:53:00,
2013-09-05 03:58:00,60.1,57.5,30.12,North,0,0.0,0.0,91,0.00,,,0.00,WUHU21623XXSP,2013-09-05 08:58:00,
2013-09-05 04:03:00,60.1,57.5,30.13,South,180,0.0,0.0,91,0.00,,,0.00,WUHU21623XXSP,2013-09-05 09:03:00,
2013-09-05 04:08:00,60.1,57.5,30.13,NE,45,0.0,0.0,91,0.00,,,0.00,WUHU21623XXSP,2013-09-05 09:08:00,
2013-09-05 04:13:00,60.1,57.5,30.13,ESE,112,0.0,0.0,91,0.00,,,0.00,WUHU21623XXSP,2013-09-05 09:13:00,
2013-09-05 04:18:00,60.1,57.5,30.13,ESE,112,0.0,0.0,91,0.00,,,0.00,WUHU21623XXSP,2013-09-05 09:18:00,
2013-09-05 04:23:00,59.9,57.3,30.13,North,0,0.0,0.0,91,0.00,,,0.00,WUHU21623XXSP,2013-09-05 09:23:00,
2013-09-05 04:28:00,59.9,57.3,30.13,NE,45,0.0,0.0,91,0.00,,,0.00,WUHU21623XXSP,2013-09-05 09:28:00,
2013-09-05 04:33:00,59.7,57.1,30.14,NE,45,0.0,0.0,91,0.00,,,0.00,WUHU21623XXSP,2013-09-05 09:33:00,
2013-09-05 04:38:00,59.7,57.1,30.14,NE,45,0.0,0.0,91,0.00,,,0.00,WUHU21623XXSP,2013-09-05 09:38:00,
2013-09-05 04:43:00,59.5,56.9,30.14,NNW,337,0.0,0.0,91,0.00,,,0.00,WUHU21623XXSP,2013-09-05 09:43:00,
2013-09-05 04:48:00,59.4,56.9,30.14,NNE,22,0.0,0.0,91,0.00,,,0.00,WUHU21623XXSP,2013-09-05 09:48:00,
2013-09-05 04:53:00,59.2,56.6,30.14,NNE,22,0.0,0.0,90,0.00,,,0.00,WUHU21623XXSP,2013-09-05 09:53:00,
2013-09-05 04:58:00,58.8,55.9,30.14,NW,315,0.0,0.0,90,0.00,,,0.00,WUHU21623XXSP,2013-09-05 09:58:00,
2013-09-05 05:03:00,58.8,55.9,30.14,ENE,67,0.0,0.0,90,0.00,,,0.00,WUHU21623XXSP,2013-09-05 10:03:00,
2013-09-05 05:08:00,58.6,55.9,30.14,ENE,67,0.0,0.0,90,0.00,,,0.00,WUHU21623XXSP,2013-09-05 10:08:00,
2013-09-05 05:13:00,58.3,55.6,30.15,ENE,67,0.0,0.0,90,0.00,,,0.00,WUHU21623XXSP,2013-09-05 10:13:00,
2013-09-05 05:18:00,58.1,54.9,30.15,NW,315,0.0,0.0,89,0.00,,,0.00,WUHU21623XXSP,2013-09-05 10:18:00,
2013-09-05 05:23:00,57.9,54.7,30.15,ENE,67,0.0,0.0,89,0.00,,,0.00,WUHU21623XXSP,2013-09-05 10:23:00,
2013-09-05 05:28:00,57.9,54.7,30.15,NNW,337,0.0,0.0,89,0.00,,,0.00,WUHU21623XXSP,2013-09-05 10:28:00,
2013-09-05 05:33:00,57.9,54.7,30.15,NNW,337,0.0,0.0,89,0.00,,,0.00,WUHU21623XXSP,2013-09-05 10:33:00,
2013-09-05 05:38:00,57.9,54.7,30.15,NE,45,0.0,0.0,89,0.00,,,0.00,WUHU21623XXSP,2013-09-05 10:38:00,
2013-09-05 05:43:00,57.7,54.5,30.15,NNW,337,0.0,0.0,89,0.00,,,0.00,WUHU21623XXSP,2013-09-05 10:43:00,
2013-09-05 05:48:00,57.6,54.4,30.16,SE,135,0.0,0.0,89,0.00,,,0.00,WUHU21623XXSP,2013-09-05 10:48:00,
2013-09-05 05:53:00,57.4,54.2,30.15,NW,315,0.0,0.0,89,0.00,,,0.00,WUHU21623XXSP,2013-09-05 10:53:00,
2013-09-05 05:58:00,57.2,54.0,30.16,ENE,67,0.0,0.0,89,0.00,,,0.00,WUHU21623XXSP,2013-09-05 10:58:00,
2013-09-05 06:03:00,56.8,53.8,30.16,North,0,0.0,0.0,89,0.00,,,0.00,WUHU21623XXSP,2013-09-05 11:03:00,
2013-09-05 06:08:00,56.5,53.0,30.17,NNW,337,0.0,0.0,88,0.00,,,0.00,WUHU21623XXSP,2013-09-05 11:08:00,
2013-09-05 06:13:00,56.1,52.6,30.16,NW,315,0.0,0.0,88,0.00,,,0.00,WUHU21623XXSP,2013-09-05 11:13:00,
2013-09-05 06:18:00,55.6,52.1,30.17,NW,315,0.0,0.0,88,0.00,,,0.00,WUHU21623XXSP,2013-09-05 11:18:00,
2013-09-05 06:23:00,55.2,51.9,30.17,NW,315,0.0,0.0,88,0.00,,,0.00,WUHU21623XXSP,2013-09-05 11:23:00,
2013-09-05 06:28:00,55.0,51.7,30.17,North,0,0.0,0.0,88,0.00,,,0.00,WUHU21623XXSP,2013-09-05 11:28:00,
2013-09-05 06:33:00,54.7,51.5,30.17,NNW,337,0.0,0.0,89,0.00,,,0.00,WUHU21623XXSP,2013-09-05 11:33:00,
2013-09-05 06:38:00,54.5,51.3,30.17,NW,315,0.0,0.0,89,0.00,,,0.00,WUHU21623XXSP,2013-09-05 11:38:00,
2013-09-05 06:43:00,54.3,51.1,30.18,NW,315,0.0,0.0,89,0.00,,,0.00,WUHU21623XXSP,2013-09-05 11:43:00,
2013-09-05 06:48:00,54.3,51.1,30.18,NW,315,0.0,0.0,89,0.00,,,0.00,WUHU21623XXSP,2013-09-05 11:48:00,
2013-09-05 06:53:00,54.3,51.1,30.18,NW,315,0.0,0.0,89,0.00,,,0.00,WUHU21623XXSP,2013-09-05 11:53:00,
2013-09-05 06:58:00,54.3,51.1,30.18,NNE,22,0.0,0.0,89,0.00,,,0.00,WUHU21623XXSP,2013-09-05 11:58:00,
2013-09-05 07:03:00,54.7,51.8,30.19,ESE,112,0.0,0.0,90,0.00,,,0.00,WUHU21623XXSP,2013-09-05 12:03:00,
2013-09-05 07:08:00,54.7,51.8,30.19,NE,45,0.0,0.0,90,0.00,,,0.00,WUHU21623XXSP,2013-09-05 12:08:00,
2013-09-05 07:13:00,54.7,51.8,30.19,ENE,67,0.0,0.0,90,0.00,,,0.00,WUHU21623XXSP,2013-09-05 12:13:00,
2013-09-05 07:18:00,54.7,51.8,30.19,NNE,22,0.0,0.0,90,0.00,,,0.00,WUHU21623XXSP,2013-09-05 12:18:00,
2013-09-05 07:23:00,54.7,51.5,30.19,North,0,0.0,0.0,89,0.00,,,0.00,WUHU21623XXSP,2013-09-05 12:23:00,
2013-09-05 07:28:00,54.7,51.5,30.19,ENE,67,0.0,0.0,89,0.00,,,0.00,WUHU21623XXSP,2013-09-05 12:28:00,
2013-09-05 07:33:00,54.7,51.5,30.19,NW,315,0.0,0.0,89,0.00,,,0.00,WUHU21623XXSP,2013-09-05 12:33:00,
2013-09-05 07:38:00,54.7,51.5,30.19,East,90,0.0,0.0,89,0.00,,,0.00,WUHU21623XXSP,2013-09-05 12:38:00,
2013-09-05 07:43:00,54.9,51.7,30.19,NE,45,0.0,0.0,89,0.00,,,0.00,WUHU21623XXSP,2013-09-05 12:43:00,
2013-09-05 07:48:00,55.0,51.8,30.19,ENE,67,0.0,0.0,89,0.00,,,0.00,WUHU21623XXSP,2013-09-05 12:48:00,
2013-09-05 07:53:00,55.2,52.0,30.20,SE,135,0.0,0.0,89,0.00,,,0.00,WUHU21623XXSP,2013-09-05 12:53:00,
2013-09-05 07:58:00,55.4,51.9,30.20,NE,45,0.0,0.0,88,0.00,,,0.00,WUHU21623XXSP,2013-09-05 12:58:00,
2013-09-05 08:03:00,55.8,52.2,30.21,North,0,0.0,0.0,88,0.00,,,0.00,WUHU21623XXSP,2013-09-05 13:03:00,
2013-09-05 08:08:00,55.9,52.1,30.21,North,0,0.0,0.0,87,0.00,,,0.00,WUHU21623XXSP,2013-09-05 13:08:00,
2013-09-05 08:13:00,56.8,52.7,30.21,NNW,337,0.0,0.0,86,0.00,,,0.00,WUHU21623XXSP,2013-09-05 13:13:00,
2013-09-05 08:18:00,56.8,52.0,30.21,SSW,202,0.0,0.0,84,0.00,,,0.00,WUHU21623XXSP,2013-09-05 13:18:00,
2013-09-05 08:23:00,57.0,51.9,30.21,NE,45,0.0,0.0,83,0.00,,,0.00,WUHU21623XXSP,2013-09-05 13:23:00,
2013-09-05 08:28:00,57.0,51.5,30.21,ENE,67,0.0,0.0,82,0.00,,,0.00,WUHU21623XXSP,2013-09-05 13:28:00,
2013-09-05 08:33:00,57.0,51.2,30.21,NNW,337,0.0,0.0,81,0.00,,,0.00,WUHU21623XXSP,2013-09-05 13:33:00,
2013-09-05 08:38:00,57.0,50.9,30.21,North,0,0.0,0.0,80,0.00,,,0.00,WUHU21623XXSP,2013-09-05 13:38:00,
2013-09-05 08:43:00,57.0,51.2,30.21,NNW,337,0.0,0.0,81,0.00,,,0.00,WUHU21623XXSP,2013-09-05 13:43:00,
2013-09-05 08:48:00,57.4,51.6,30.21,WNW,292,0.0,0.0,81,0.00,,,0.00,WUHU21623XXSP,2013-09-05 13:48:00,
2013-09-05 08:53:00,57.6,51.4,30.21,ENE,67,0.0,0.0,80,0.00,,,0.00,WUHU21623XXSP,2013-09-05 13:53:00,
2013-09-05 08:58:00,57.7,51.6,30.21,ENE,67,0.0,0.0,80,0.00,,,0.00,WUHU21623XXSP,2013-09-05 13:58:00,
2013-09-05 09:03:00,58.1,51.6,30.21,East,90,0.0,0.0,79,0.00,,,0.00,WUHU21623XXSP,2013-09-05 14:03:00,
2013-09-05 09:08:00,58.5,52.0,30.21,SW,225,0.0,0.0,79,0.00,,,0.00,WUHU21623XXSP,2013-09-05 14:08:00,
2013-09-05 09:13:00,58.8,51.6,30.21,North,0,0.0,0.0,77,0.00,,,0.00,WUHU21623XXSP,2013-09-05 14:13:00,
2013-09-05 09:18:00,58.8,51.6,30.21,East,90,0.0,0.0,77,0.00,,,0.00,WUHU21623XXSP,2013-09-05 14:18:00,
2013-09-05 09:23:00,59.0,51.4,30.21,South,180,0.0,0.0,76,0.00,,,0.00,WUHU21623XXSP,2013-09-05 14:23:00,
2013-09-05 09:28:00,59.5,51.6,30.21,ESE,112,0.0,0.0,75,0.00,,,0.00,WUHU21623XXSP,2013-09-05 14:28:00,
2013-09-05 09:33:00,59.5,51.3,30.21,ESE,112,0.0,0.0,74,0.00,,,0.00,WUHU21623XXSP,2013-09-05 14:33:00,
2013-09-05 09:38:00,59.7,51.8,30.21,SW,225,0.0,0.0,75,0.00,,,0.00,WUHU21623XXSP,2013-09-05 14:38:00,
2013-09-05 09:43:00,60.1,51.8,30.21,NE,45,0.0,0.0,74,0.00,,,0.00,WUHU21623XXSP,2013-09-05 14:43:00,
2013-09-05 09:48:00,60.4,51.8,30.21,ENE,67,0.0,0.0,73,0.00,,,0.00,WUHU21623XXSP,2013-09-05 14:48:00,
2013-09-05 09:53:00,60.6,52.0,30.21,SE,135,0.0,0.0,73,0.00,,,0.00,WUHU21623XXSP,2013-09-05 14:53:00,
2013-09-05 09:58:00,61.0,52.0,30.21,WSW,247,0.0,0.0,72,0.00,,,0.00,WUHU21623XXSP,2013-09-05 14:58:00,
2013-09-05 10:03:00,61.2,51.8,30.21,SSE,157,0.0,0.0,71,0.00,,,0.00,WUHU21623XXSP,2013-09-05 15:03:00,
2013-09-05 10:08:00,61.5,52.1,30.21,ENE,67,0.0,0.0,71,0.00,,,0.00,WUHU21623XXSP,2013-09-05 15:08:00,
2013-09-05 10:13:00,61.9,52.4,30.21,West,270,0.0,0.0,71,0.00,,,0.00,WUHU21623XXSP,2013-09-05 15:13:00,
2013-09-05 10:19:00,62.2,52.7,30.21,WSW,247,0.0,0.0,71,0.00,,,0.00,WUHU21623XXSP,2013-09-05 15:19:00,
2013-09-05 10:24:00,62.4,52.1,30.20,NE,45,0.0,0.0,69,0.00,,,0.00,WUHU21623XXSP,2013-09-05 15:24:00,
2013-09-05 10:29:00,62.6,52.3,30.21,ENE,67,0.0,0.0,69,0.00,,,0.00,WUHU21623XXSP,2013-09-05 15:29:00,
2013-09-05 10:34:00,62.8,52.0,30.20,NE,45,0.0,0.0,68,0.00,,,0.00,WUHU21623XXSP,2013-09-05 15:34:00,
2013-09-05 10:39:00,63.0,52.6,30.21,SSE,157,0.0,0.0,69,0.00,,,0.00,WUHU21623XXSP,2013-09-05 15:39:00,
2013-09-05 10:44:00,63.1,52.8,30.20,East,90,0.0,0.0,69,0.00,,,0.00,WUHU21623XXSP,2013-09-05 15:44:00,
2013-09-05 10:49:00,63.3,53.0,30.20,NNE,22,0.0,0.0,69,0.00,,,0.00,WUHU21623XXSP,2013-09-05 15:49:00,
2013-09-05 10:54:00,63.7,53.3,30.21,NW,315,0.0,0.0,69,0.00,,,0.00,WUHU21623XXSP,2013-09-05 15:54:00,
2013-09-05 10:59:00,64.0,53.7,30.21,ENE,67,0.0,0.0,69,0.00,,,0.00,WUHU21623XXSP,2013-09-05 15:59:00,
2013-09-05 11:04:00,64.2,53.5,30.21,SE,135,0.0,0.0,68,0.00,,,0.00,WUHU21623XXSP,2013-09-05 16:04:00,
2013-09-05 11:09:00,64.2,53.0,30.21,ENE,67,0.0,0.0,67,0.00,,,0.00,WUHU21623XXSP,2013-09-05 16:09:00,
2013-09-05 11:14:00,64.9,54.1,30.21,SE,135,0.0,0.0,68,0.00,,,0.00,WUHU21623XXSP,2013-09-05 16:14:00,
2013-09-05 11:19:00,65.3,54.0,30.21,South,180,0.0,0.0,67,0.00,,,0.00,WUHU21623XXSP,2013-09-05 16:19:00,
2013-09-05 11:24:00,65.8,54.5,30.20,NE,45,0.0,0.0,67,0.00,,,0.00,WUHU21623XXSP,2013-09-05 16:24:00,
2013-09-05 11:29:00,66.4,53.8,30.20,NW,315,0.0,0.0,64,0.00,,,0.00,WUHU21623XXSP,2013-09-05 16:29:00,
2013-09-05 11:34:00,66.4,54.2,30.20,NNW,337,0.0,0.0,65,0.00,,,0.00,WUHU21623XXSP,2013-09-05 16:34:00,
2013-09-05 11:39:00,66.7,54.6,30.21,NNW,337,0.0,0.0,65,0.00,,,0.00,WUHU21623XXSP,2013-09-05 16:39:00,
2013-09-05 11:44:00,67.3,55.1,30.21,SE,135,0.0,0.0,65,0.00,,,0.00,WUHU21623XXSP,2013-09-05 16:44:00,
2013-09-05 11:49:00,67.6,55.0,30.21,SE,135,0.0,0.0,64,0.00,,,0.00,WUHU21623XXSP,2013-09-05 16:49:00,
2013-09-05 11:54:00,68.2,55.5,30.21,South,180,0.0,0.0,64,0.00,,,0.00,WUHU21623XXSP,2013-09-05 16:54:00,
2013-09-05 11:59:00,69.1,55.9,30.20,NE,45,0.0,0.0,63,0.00,,,0.00,WUHU21623XXSP,2013-09-05 16:59:00,
2013-09-05 12:04:00,69.6,55.6,30.21,NNW,337,0.0,0.0,61,0.00,,,0.00,WUHU21623XXSP,2013-09-05 17:04:00,
2013-09-05 12:09:00,69.6,55.2,30.21,NW,315,0.0,0.0,60,0.00,,,0.00,WUHU21623XXSP,2013-09-05 17:09:00,
2013-09-05 12:14:00,70.0,55.6,30.20,NE,45,0.0,0.0,60,0.00,,,0.00,WUHU21623XXSP,2013-09-05 17:14:00,
2013-09-05 12:19:00,70.3,55.4,30.20,NNE,22,0.0,0.0,59,0.00,,,0.00,WUHU21623XXSP,2013-09-05 17:19:00,
2013-09-05 12:24:00,70.5,55.5,30.19,SE,135,0.0,0.0,59,0.00,,,0.00,WUHU21623XXSP,2013-09-05 17:24:00,
2013-09-05 12:29:00,71.2,55.7,30.19,WNW,292,0.0,0.0,58,0.00,,,0.00,WUHU21623XXSP,2013-09-05 17:29:00,
2013-09-05 12:34:00,71.8,56.2,30.19,NNE,22,0.0,0.0,58,0.00,,,0.00,WUHU21623XXSP,2013-09-05 17:34:00,
2013-09-05 12:39:00,72.1,56.0,30.18,NNE,22,0.0,0.0,57,0.00,,,0.00,WUHU21623XXSP,2013-09-05 17:39:00,
2013-09-05 12:44:00,72.3,55.1,30.18,North,0,0.0,0.0,55,0.00,,,0.00,WUHU21623XXSP,2013-09-05 17:44:00,
2013-09-05 12:49:00,72.3,54.6,30.18,North,0,0.0,0.0,54,0.00,,,0.00,WUHU21623XXSP,2013-09-05 17:49:00,
2013-09-05 12:54:00,72.3,54.6,30.18,NE,45,0.0,0.0,54,0.00,,,0.00,WUHU21623XXSP,2013-09-05 17:54:00,
2013-09-05 12:59:00,72.5,55.3,30.18,West,270,0.0,0.0,55,0.00,,,0.00,WUHU21623XXSP,2013-09-05 17:59:00,
2013-09-05 13:04:00,73.2,55.0,30.18,ESE,112,0.0,0.0,53,0.00,,,0.00,WUHU21623XXSP,2013-09-05 18:04:00,
2013-09-05 13:09:00,73.4,54.6,30.18,WNW,292,0.0,0.0,52,0.00,,,0.00,WUHU21623XXSP,2013-09-05 18:09:00,
2013-09-05 13:14:00,73.9,56.0,30.18,WNW,292,0.0,0.0,53,0.00,,,0.00,WUHU21623XXSP,2013-09-05 18:14:00,
2013-09-05 13:19:00,74.5,55.2,30.18,SE,135,0.0,0.0,51,0.00,,,0.00,WUHU21623XXSP,2013-09-05 18:19:00,
2013-09-05 13:24:00,73.9,54.1,30.17,NW,315,0.0,0.0,50,0.00,,,0.00,WUHU21623XXSP,2013-09-05 18:24:00,
2013-09-05 13:29:00,74.1,54.3,30.17,NNE,22,0.0,0.0,50,0.00,,,0.00,WUHU21623XXSP,2013-09-05 18:29:00,
2013-09-05 13:34:00,74.5,54.1,30.16,WSW,247,0.0,0.0,49,0.00,,,0.00,WUHU21623XXSP,2013-09-05 18:34:00,
2013-09-05 13:39:00,74.8,54.4,30.17,NNW,337,0.0,0.0,49,0.00,,,0.00,WUHU21623XXSP,2013-09-05 18:39:00,
2013-09-05 13:44:00,74.8,53.2,30.16,ENE,67,0.0,0.0,47,0.00,,,0.00,WUHU21623XXSP,2013-09-05 18:44:00,
2013-09-05 13:49:00,75.2,54.2,30.16,WSW,247,0.0,0.0,48,0.00,,,0.00,WUHU21623XXSP,2013-09-05 18:49:00,
2013-09-05 13:54:00,75.6,53.9,30.16,NNE,22,0.0,0.0,47,0.00,,,0.00,WUHU21623XXSP,2013-09-05 18:54:00,
2013-09-05 13:59:00,75.9,55.4,30.16,SW,225,0.0,0.0,49,0.00,,,0.00,WUHU21623XXSP,2013-09-05 18:59:00,
2013-09-05 14:04:00,76.8,55.0,30.16,North,0,0.0,0.0,47,0.00,,,0.00,WUHU21623XXSP,2013-09-05 19:04:00,
2013-09-05 14:09:00,77.2,55.3,30.16,NNE,22,0.0,0.0,47,0.00,,,0.00,WUHU21623XXSP,2013-09-05 19:09:00,
2013-09-05 14:14:00,77.5,55.1,30.16,East,90,0.0,0.0,46,0.00,,,0.00,WUHU21623XXSP,2013-09-05 19:14:00,
2013-09-05 14:19:00,77.7,54.6,30.15,North,0,0.0,0.0,45,0.00,,,0.00,WUHU21623XXSP,2013-09-05 19:19:00,
2013-09-05 14:24:00,77.5,55.1,30.15,East,90,0.0,0.0,46,0.00,,,0.00,WUHU21623XXSP,2013-09-05 19:24:00,
2013-09-05 14:29:00,77.9,55.4,30.15,NE,45,0.0,0.0,46,0.00,,,0.00,WUHU21623XXSP,2013-09-05 19:29:00,
2013-09-05 14:34:00,77.7,54.0,30.15,North,0,0.0,0.0,44,0.00,,,0.00,WUHU21623XXSP,2013-09-05 19:34:00,
2013-09-05 14:39:00,77.9,54.8,30.15,West,270,0.0,0.0,45,0.00,,,0.00,WUHU21623XXSP,2013-09-05 19:39:00,
2013-09-05 14:44:00,77.9,53.5,30.15,West,270,0.0,0.0,43,0.00,,,0.00,WUHU21623XXSP,2013-09-05 19:44:00,
2013-09-05 14:49:00,77.9,53.5,30.15,North,0,0.0,0.0,43,0.00,,,0.00,WUHU21623XXSP,2013-09-05 19:49:00,
2013-09-05 14:54:00,78.1,54.3,30.15,South,180,0.0,0.0,44,0.00,,,0.00,WUHU21623XXSP,2013-09-05 19:54:00,
2013-09-05 14:59:00,79.0,54.5,30.15,ENE,67,0.0,0.0,43,0.00,,,0.00,WUHU21623XXSP,2013-09-05 19:59:00,
2013-09-05 15:04:00,79.7,54.6,30.14,West,270,0.0,0.0,42,0.00,,,0.00,WUHU21623XXSP,2013-09-05 20:04:00,
2013-09-05 15:09:00,80.1,54.3,30.14,SSW,202,0.0,0.0,41,0.00,,,0.00,WUHU21623XXSP,2013-09-05 20:09:00,
2013-09-05 15:14:00,80.4,54.6,30.14,NNE,22,0.0,0.0,41,0.00,,,0.00,WUHU21623XXSP,2013-09-05 20:14:00,
2013-09-05 15:19:00,80.4,54.6,30.14,NE,45,0.0,0.0,41,0.00,,,0.00,WUHU21623XXSP,2013-09-05 20:19:00,
2013-09-05 15:24:00,80.4,54.0,30.14,WNW,292,0.0,0.0,40,0.00,,,0.00,WUHU21623XXSP,2013-09-05 20:24:00,
2013-09-05 15:29:00,80.4,54.0,30.14,NE,45,0.0,0.0,40,0.00,,,0.00,WUHU21623XXSP,2013-09-05 20:29:00,
2013-09-05 15:34:00,80.4,54.6,30.14,WSW,247,0.0,0.0,41,0.00,,,0.00,WUHU21623XXSP,2013-09-05 20:34:00,
2013-09-05 15:39:00,80.8,54.3,30.14,East,90,0.0,0.0,40,0.00,,,0.00,WUHU21623XXSP,2013-09-05 20:39:00,
2013-09-05 15:44:00,80.6,54.1,30.13,West,270,0.0,0.0,40,0.00,,,0.00,WUHU21623XXSP,2013-09-05 20:44:00,
2013-09-05 15:49:00,81.0,54.5,30.13,East,90,0.0,0.0,40,0.00,,,0.00,WUHU21623XXSP,2013-09-05 20:49:00,
2013-09-05 15:54:00,81.1,54.6,30.13,SW,225,0.0,0.0,40,0.00,,,0.00,WUHU21623XXSP,2013-09-05 20:54:00,
2013-09-05 15:59:00,81.5,55.0,30.13,NW,315,0.0,0.0,40,0.00,,,0.00,WUHU21623XXSP,2013-09-05 20:59:00,
2013-09-05 16:04:00,81.7,55.1,30.13,NNE,22,0.0,0.0,40,0.00,,,0.00,WUHU21623XXSP,2013-09-05 21:04:00,
2013-09-05 16:09:00,81.5,55.0,30.13,North,0,0.0,0.0,40,0.00,,,0.00,WUHU21623XXSP,2013-09-05 21:09:00,
2013-09-05 16:14:00,81.3,54.8,30.13,NW,315,0.0,0.0,40,0.00,,,0.00,WUHU21623XXSP,2013-09-05 21:14:00,
2013-09-05 16:19:00,82.0,55.4,30.13,NNE,22,0.0,0.0,40,0.00,,,0.00,WUHU21623XXSP,2013-09-05 21:19:00,
2013-09-05 16:24:00,82.2,54.8,30.13,NNE,22,0.0,0.0,39,0.00,,,0.00,WUHU21623XXSP,2013-09-05 21:24:00,
2013-09-05 16:29:00,82.0,53.9,30.13,NNE,22,0.0,0.0,38,0.00,,,0.00,WUHU21623XXSP,2013-09-05 21:29:00,
2013-09-05 16:34:00,81.7,53.5,30.13,NE,45,0.0,0.0,38,0.00,,,0.00,WUHU21623XXSP,2013-09-05 21:34:00,
2013-09-05 16:39:00,82.0,54.6,30.13,SE,135,0.0,0.0,39,0.00,,,0.00,WUHU21623XXSP,2013-09-05 21:39:00,
2013-09-05 16:44:00,82.2,54.8,30.13,South,180,0.0,0.0,39,0.00,,,0.00,WUHU21623XXSP,2013-09-05 21:44:00,
2013-09-05 16:49:00,82.8,54.5,30.13,WSW,247,0.0,0.0,38,0.00,,,0.00,WUHU21623XXSP,2013-09-05 21:49:00,
2013-09-05 16:54:00,82.8,53.7,30.12,WSW,247,0.0,0.0,37,0.00,,,0.00,WUHU21623XXSP,2013-09-05 21:54:00,
2013-09-05 16:59:00,82.2,54.0,30.12,WSW,247,0.0,0.0,38,0.00,,,0.00,WUHU21623XXSP,2013-09-05 21:59:00,
2013-09-05 17:04:00,82.0,53.1,30.12,WSW,247,0.0,0.0,37,0.00,,,0.00,WUHU21623XXSP,2013-09-05 22:04:00,
2013-09-05 17:09:00,82.2,54.0,30.12,NW,315,0.0,0.0,38,0.00,,,0.00,WUHU21623XXSP,2013-09-05 22:09:00,
2013-09-05 17:14:00,82.2,54.0,30.12,WSW,247,0.0,0.0,38,0.00,,,0.00,WUHU21623XXSP,2013-09-05 22:14:00,
2013-09-05 17:19:00,82.0,53.9,30.11,North,0,0.0,0.0,38,0.00,,,0.00,WUHU21623XXSP,2013-09-05 22:19:00,
2013-09-05 17:24:00,81.9,53.7,30.11,WSW,247,0.0,0.0,38,0.00,,,0.00,WUHU21623XXSP,2013-09-05 22:24:00,
2013-09-05 17:29:00,81.7,52.8,30.11,WSW,247,0.0,0.0,37,0.00,,,0.00,WUHU21623XXSP,2013-09-05 22:29:00,
2013-09-05 17:34:00,81.7,53.5,30.11,WSW,247,0.0,0.0,38,0.00,,,0.00,WUHU21623XXSP,2013-09-05 22:34:00,
2013-09-05 17:39:00,81.5,53.4,30.11,West,270,0.0,0.0,38,0.00,,,0.00,WUHU21623XXSP,2013-09-05 22:39:00,
2013-09-05 17:44:00,81.1,53.1,30.11,ENE,67,0.0,0.0,38,0.00,,,0.00,WUHU21623XXSP,2013-09-05 22:44:00,
2013-09-05 17:49:00,81.1,53.8,30.11,WSW,247,0.0,0.0,39,0.00,,,0.00,WUHU21623XXSP,2013-09-05 22:49:00,
2013-09-05 17:54:00,81.0,53.7,30.11,NNE,22,0.0,0.0,39,0.00,,,0.00,WUHU21623XXSP,2013-09-05 22:54:00,
2013-09-05 17:59:00,80.8,53.5,30.11,NE,45,0.0,0.0,39,0.00,,,0.00,WUHU21623XXSP,2013-09-05 22:59:00,
2013-09-05 18:04:00,80.8,53.5,30.11,North,0,0.0,0.0,39,0.00,,,0.00,WUHU21623XXSP,2013-09-05 23:04:00,
2013-09-05 18:09:00,80.2,53.8,30.12,NNE,22,0.0,0.0,40,0.00,,,0.00,WUHU21623XXSP,2013-09-05 23:09:00,
2013-09-05 18:14:00,79.3,53.3,30.12,East,90,0.0,0.0,40,0.00,,,0.00,WUHU21623XXSP,2013-09-05 23:14:00,
2013-09-05 18:19:00,78.4,52.8,30.11,SE,135,0.0,0.0,41,0.00,,,0.00,WUHU21623XXSP,2013-09-05 23:19:00,
2013-09-05 18:24:00,77.2,52.3,30.11,NE,45,0.0,0.0,42,0.00,,,0.00,WUHU21623XXSP,2013-09-05 23:24:00,
2013-09-05 18:29:00,76.8,52.6,30.11,NE,45,0.0,0.0,43,0.00,,,0.00,WUHU21623XXSP,2013-09-05 23:29:00,
2013-09-05 18:34:00,76.6,52.4,30.11,East,90,0.0,0.0,43,0.00,,,0.00,WUHU21623XXSP,2013-09-05 23:34:00,
2013-09-05 18:39:00,76.3,52.7,30.11,SE,135,0.0,0.0,44,0.00,,,0.00,WUHU21623XXSP,2013-09-05 23:39:00,
2013-09-05 18:44:00,76.3,52.7,30.11,NE,45,0.0,0.0,44,0.00,,,0.00,WUHU21623XXSP,2013-09-05 23:44:00,
2013-09-05 18:49:00,75.9,52.4,30.11,NE,45,0.0,0.0,44,0.00,,,0.00,WUHU21623XXSP,2013-09-05 23:49:00,
2013-09-05 18:54:00,74.8,52.0,30.11,ESE,112,0.0,0.0,45,0.00,,,0.00,WUHU21623XXSP,2013-09-05 23:54:00,
2013-09-05 18:59:00,73.9,51.7,30.11,SE,135,0.0,0.0,46,0.00,,,0.00,WUHU21623XXSP,2013-09-05 23:59:00,
2013-09-05 19:04:00,73.2,51.1,30.11,SE,135,0.0,0.0,46,0.00,,,0.00,WUHU21623XXSP,2013-09-06 00:04:00,
2013-09-05 19:09:00,72.0,51.1,30.11,SE,135,0.0,0.0,48,0.00,,,0.00,WUHU21623XXSP,2013-09-06 00:09:00,
2013-09-05 19:14:00,71.2,51.1,30.11,SE,135,0.0,0.0,49,0.00,,,0.00,WUHU21623XXSP,2013-09-06 00:14:00,
2013-09-05 19:19:00,70.7,51.2,30.11,SE,135,0.0,0.0,50,0.00,,,0.00,WUHU21623XXSP,2013-09-06 00:19:00,
2013-09-05 19:24:00,69.8,51.4,30.11,WNW,292,0.0,0.0,52,0.00,,,0.00,WUHU21623XXSP,2013-09-06 00:24:00,
2013-09-05 19:29:00,69.3,51.4,30.11,SSW,202,0.0,0.0,53,0.00,,,0.00,WUHU21623XXSP,2013-09-06 00:29:00,
2013-09-05 19:34:00,68.7,51.4,30.12,SSW,202,0.0,0.0,54,0.00,,,0.00,WUHU21623XXSP,2013-09-06 00:34:00,
2013-09-05 19:39:00,67.8,51.5,30.12,NW,315,0.0,0.0,56,0.00,,,0.00,WUHU21623XXSP,2013-09-06 00:39:00,
2013-09-05 19:44:00,67.5,51.7,30.12,ENE,67,0.0,0.0,57,0.00,,,0.00,WUHU21623XXSP,2013-09-06 00:44:00,
2013-09-05 19:49:00,66.9,51.7,30.12,ENE,67,0.0,0.0,58,0.00,,,0.00,WUHU21623XXSP,2013-09-06 00:49:00,
2013-09-05 19:54:00,66.4,51.7,30.12,NE,45,0.0,0.0,59,0.00,,,0.00,WUHU21623XXSP,2013-09-06 00:54:00,
2013-09-05 19:59:00,66.0,51.8,30.12,NE,45,0.0,0.0,60,0.00,,,0.00,WUHU21623XXSP,2013-09-06 00:59:00,
2013-09-05 20:04:00,65.5,51.3,30.13,NE,45,0.0,0.0,60,0.00,,,0.00,WUHU21623XXSP,2013-09-06 01:04:00,
2013-09-05 20:09:00,64.9,51.1,30.13,NNW,337,0.0,0.0,61,0.00,,,0.00,WUHU21623XXSP,2013-09-06 01:09:00,
2013-09-05 20:14:00,64.6,51.2,30.13,WSW,247,0.0,0.0,62,0.00,,,0.00,WUHU21623XXSP,2013-09-06 01:14:00,
2013-09-05 20:19:00,64.2,51.3,30.13,ENE,67,0.0,0.0,63,0.00,,,0.00,WUHU21623XXSP,2013-09-06 01:19:00,
2013-09-05 20:24:00,63.7,51.2,30.13,East,90,0.0,0.0,64,0.00,,,0.00,WUHU21623XXSP,2013-09-06 01:24:00,
2013-09-05 20:29:00,63.7,51.2,30.13,NW,315,0.0,0.0,64,0.00,,,0.00,WUHU21623XXSP,2013-09-06 01:29:00,
2013-09-05 20:34:00,63.3,50.9,30.13,NW,315,0.0,0.0,64,0.00,,,0.00,WUHU21623XXSP,2013-09-06 01:34:00,
2013-09-05 20:39:00,63.1,51.1,30.13,NE,45,0.0,0.0,65,0.00,,,0.00,WUHU21623XXSP,2013-09-06 01:39:00,
2013-09-05 20:44:00,62.8,51.2,30.13,WSW,247,0.0,0.0,66,0.00,,,0.00,WUHU21623XXSP,2013-09-06 01:44:00,
2013-09-05 20:49:00,62.4,50.9,30.13,WSW,247,0.0,0.0,66,0.00,,,0.00,WUHU21623XXSP,2013-09-06 01:49:00,
2013-09-05 20:54:00,62.1,50.6,30.13,East,90,0.0,0.0,66,0.00,,,0.00,WUHU21623XXSP,2013-09-06 01:54:00,
2013-09-05 20:59:00,61.7,50.6,30.13,NNE,22,0.0,0.0,67,0.00,,,0.00,WUHU21623XXSP,2013-09-06 01:59:00,
2013-09-05 21:04:00,61.3,50.3,30.13,NW,315,0.0,0.0,67,0.00,,,0.00,WUHU21623XXSP,2013-09-06 02:04:00,
2013-09-05 21:09:00,61.2,50.2,30.13,NW,315,0.0,0.0,67,0.00,,,0.00,WUHU21623XXSP,2013-09-06 02:09:00,
2013-09-05 21:14:00,60.8,50.3,30.13,NW,315,0.0,0.0,68,0.00,,,0.00,WUHU21623XXSP,2013-09-06 02:14:00,
2013-09-05 21:19:00,60.4,49.9,30.13,NW,315,0.0,0.0,68,0.00,,,0.00,WUHU21623XXSP,2013-09-06 02:19:00,
2013-09-05 21:24:00,60.1,49.9,30.13,NW,315,0.0,0.0,69,0.00,,,0.00,WUHU21623XXSP,2013-09-06 02:24:00,
2013-09-05 21:29:00,59.9,49.8,30.13,ESE,112,0.0,0.0,69,0.00,,,0.00,WUHU21623XXSP,2013-09-06 02:29:00,
2013-09-05 21:34:00,59.7,49.6,30.13,ESE,112,0.0,0.0,69,0.00,,,0.00,WUHU21623XXSP,2013-09-06 02:34:00,
2013-09-05 21:39:00,59.5,49.4,30.13,ESE,112,0.0,0.0,69,0.00,,,0.00,WUHU21623XXSP,2013-09-06 02:39:00,
2013-09-05 21:44:00,59.2,49.5,30.13,ESE,112,0.0,0.0,70,0.00,,,0.00,WUHU21623XXSP,2013-09-06 02:44:00,
2013-09-05 21:49:00,58.8,49.1,30.13,ESE,112,0.0,0.0,70,0.00,,,0.00,WUHU21623XXSP,2013-09-06 02:49:00,
2013-09-05 21:54:00,58.8,49.1,30.13,ESE,112,0.0,0.0,70,0.00,,,0.00,WUHU21623XXSP,2013-09-06 02:54:00,
2013-09-05 21:59:00,58.8,49.5,30.13,ESE,112,0.0,0.0,71,0.00,,,0.00,WUHU21623XXSP,2013-09-06 02:59:00,
2013-09-05 22:04:00,58.8,49.5,30.13,ESE,112,0.0,0.0,71,0.00,,,0.00,WUHU21623XXSP,2013-09-06 03:04:00,
2013-09-05 22:09:00,58.8,49.5,30.13,NNE,22,0.0,0.0,71,0.00,,,0.00,WUHU21623XXSP,2013-09-06 03:09:00,
2013-09-05 22:14:00,58.8,49.8,30.13,ENE,67,0.0,0.0,72,0.00,,,0.00,WUHU21623XXSP,2013-09-06 03:14:00,
2013-09-05 22:19:00,58.6,49.6,30.13,ENE,67,0.0,0.0,72,0.00,,,0.00,WUHU21623XXSP,2013-09-06 03:19:00,
2013-09-05 22:24:00,58.6,49.6,30.13,NNE,22,0.0,0.0,72,0.00,,,0.00,WUHU21623XXSP,2013-09-06 03:24:00,
2013-09-05 22:29:00,58.5,49.5,30.13,NNE,22,0.0,0.0,72,0.00,,,0.00,WUHU21623XXSP,2013-09-06 03:29:00,
2013-09-05 22:34:00,58.3,49.6,30.13,NNE,22,0.0,0.0,73,0.00,,,0.00,WUHU21623XXSP,2013-09-06 03:34:00,
2013-09-05 22:39:00,57.9,49.3,30.13,NNE,22,0.0,0.0,73,0.00,,,0.00,WUHU21623XXSP,2013-09-06 03:39:00,
2013-09-05 22:44:00,57.7,49.1,30.13,NNE,22,0.0,0.0,73,0.00,,,0.00,WUHU21623XXSP,2013-09-06 03:44:00,
2013-09-05 22:49:00,57.6,49.3,30.13,ENE,67,0.0,0.0,74,0.00,,,0.00,WUHU21623XXSP,2013-09-06 03:49:00,
2013-09-05 22:54:00,57.6,49.3,30.13,East,90,0.0,0.0,74,0.00,,,0.00,WUHU21623XXSP,2013-09-06 03:54:00,
2013-09-05 22:59:00,57.6,49.6,30.13,NNE,22,0.0,0.0,75,0.00,,,0.00,WUHU21623XXSP,2013-09-06 03:59:00,
2013-09-05 23:04:00,57.6,49.6,30.13,North,0,0.0,0.0,75,0.00,,,0.00,WUHU21623XXSP,2013-09-06 04:04:00,
2013-09-05 23:09:00,57.6,50.0,30.13,NNW,337,0.0,0.0,76,0.00,,,0.00,WUHU21623XXSP,2013-09-06 04:09:00,
2013-09-05 23:14:00,57.6,50.0,30.13,NNW,337,0.0,0.0,76,0.00,,,0.00,WUHU21623XXSP,2013-09-06 04:14:00,
2013-09-05 23:19:00,57.6,50.0,30.13,NNE,22,0.0,0.0,76,0.00,,,0.00,WUHU21623XXSP,2013-09-06 04:19:00,
2013-09-05 23:24:00,57.6,50.0,30.13,NNE,22,0.0,0.0,76,0.00,,,0.00,WUHU21623XXSP,2013-09-06 04:24:00,
2013-09-05 23:29:00,57.4,49.8,30.13,NNE,22,0.0,0.0,76,0.00,,,0.00,WUHU21623XXSP,2013-09-06 04:29:00,
2013-09-05 23:34:00,57.4,49.8,30.13,SW,225,0.0,0.0,76,0.00,,,0.00,WUHU21623XXSP,2013-09-06 04:34:00,
2013-09-05 23:39:00,57.4,49.8,30.13,NE,45,0.0,0.0,76,0.00,,,0.00,WUHU21623XXSP,2013-09-06 04:39:00,
2013-09-05 23:44:00,57.4,50.2,30.13,NNE,22,0.0,0.0,77,0.00,,,0.00,WUHU21623XXSP,2013-09-06 04:44:00,
2013-09-05 23:49:00,57.4,50.2,30.13,ESE,112,0.0,0.0,77,0.00,,,0.00,WUHU21623XXSP,2013-09-06 04:49:00,
2013-09-05 23:54:00,57.0,49.8,30.13,SE,135,0.0,0.0,77,0.00,,,0.00,WUHU21623XXSP,2013-09-06 04:54:00,
2013-09-05 23:59:00,57.0,49.8,30.13,NW,315,0.0,0.0,77,0.00,,,0.00,WUHU21623XXSP,2013-09-06 04:59:00,